Location: Unspecified
(40.7945°N, 0.0000°E)
Time: 06:03:21
(UTC+00:00)

Explorer 7 - Pass Details

Date: 30 January 2021
Orbit: 484 x 677 km, 50.3° (Epoch: 07 March)

Event Time Altitude Azimuth Distance (km) Brightness Sun altitude
Rises 08:16:14 0° 302° (WNW) 2,655 9.6 9.9°
Reaches altitude 10° 08:18:23 10° 300° (WNW) 1,792 8.8 10.2°
Maximum altitude 08:22:27 72° 217° (SW) 590 7.2 10.9°
Drops below altitude 10° 08:26:46 10° 133° (SE) 1,903 12.4 11.5°
Sets 08:29:07 0° 131° (SE) 2,836 12.6 11.9°
